Home   Weather   Sindelfingen   Past weeks

Flag for Germany Past Weather in Sindelfingen, Baden-Württemberg, Germany — Yesterday and Last 2 Weeks

Now
30 °F

Clear.


Feels Like: 30 °F
Forecast: 38 / 52 °F
Wind: 2 mph from North

Location: Stuttgart-Echterdingen

Current Time: Apr 24, 2017 at 5:26:23 am

Latest Report: Apr 24, 2017 at 4:50 am


Visibility: 10 mi

Pressure: 30.12 "Hg

Humidity: 86%

Dew Point: 27 °F

Location of SindelfingenLocation

Past Weather in Sindelfingen — Graph

°F

Sindelfingen Temperature Yesterday

Maximum temperature yesterday: 50 °F (at 4:50 pm)
Minimum temperature yesterday: 36 °F (at 11:50 pm)
Average temperature yesterday: 43 °F

High & Low Weather Summary for the Past Weeks

 TemperatureHumidityPressure
High73 °F (Apr 10, 1:20 pm)100% (Apr 18, 9:20 pm)30.54 "Hg (Apr 18, 9:20 pm)
Low27 °F (Apr 20, 5:20 am)20% (Apr 10, 2:50 pm)29.92 "Hg (Apr 13, 2:50 am)
Average47 °F66%30.17 "Hg
* Reported Apr 9 3:20 am — Apr 24 3:50 am, Sindelfingen, Weather by CustomWeather, © 2017

Note: Actual official high and low records may vary slightly from our data, if they occured in-between our weather recording intervals... More about our weather records

Advertising

Sindelfingen Weather History for the Previous 24 Hours

Scroll right to see more
 ConditionsComfort  
Time TempWeatherWind HumidityBarometerVisibility
3:50 am
Mon, Apr 24
32 °FPassing clouds.3 mph80%30.12 "HgN/A
3:20 am32 °FClear.2 mph80%30.15 "Hg10 mi
2:50 am32 °FClear.1 mph80%30.15 "Hg10 mi
2:20 am32 °FClear.1 mph80%30.18 "Hg10 mi
1:50 am34 °FClear.2 mph75%30.18 "Hg10 mi
1:20 am34 °FClear.2 mph81%30.18 "Hg10 mi
12:50 am34 °FClear.6 mph81%30.21 "Hg10 mi
12:20 am37 °FClear.2 mph65%30.21 "Hg10 mi
11:50 pm
Sun, Apr 23
36 °FClear.2 mph70%30.21 "Hg10 mi
10:50 pm39 °FClear.2 mph61%30.21 "Hg10 mi
10:20 pm41 °FClear.1 mph57%30.21 "Hg10 mi
9:50 pm43 °FClear.2 mph53%30.21 "Hg10 mi
8:50 pm45 °FClear.2 mph49%30.21 "Hg10 mi
8:20 pm45 °FSunny.6 mph49%30.21 "Hg10 mi
7:50 pm46 °FPassing clouds.7 mph46%30.18 "HgN/A
7:20 pm48 °FPassing clouds.10 mph43%30.18 "HgN/A
6:50 pm48 °FSunny.9 mph43%30.18 "Hg10 mi
6:20 pm48 °FPassing clouds.10 mph43%30.18 "HgN/A
5:50 pm50 °FPassing clouds.9 mph43%30.18 "HgN/A
5:20 pm50 °FPassing clouds.9 mph40%30.18 "HgN/A
4:50 pm50 °FPassing clouds.9 mph43%30.18 "HgN/A
4:20 pm48 °FPassing clouds.9 mph43%30.18 "HgN/A
3:50 pm48 °FPassing clouds.12 mph43%30.21 "HgN/A
3:20 pm48 °FPassing clouds.10 mph43%30.21 "HgN/A
2:50 pm48 °FSunny.6 mph46%30.21 "Hg10 mi
2:20 pm48 °FPassing clouds.8 mph50%30.21 "HgN/A
1:50 pm46 °FPartly sunny.8 mph46%30.21 "HgN/A
1:20 pm46 °FPartly sunny.8 mph43%30.24 "HgN/A
12:50 pm46 °FPartly sunny.7 mph53%30.24 "HgN/A
12:20 pm46 °FPartly sunny.6 mph46%30.24 "HgN/A
11:50 am45 °FBroken clouds.6 mph49%30.24 "HgN/A
11:20 am45 °FPartly sunny.5 mph49%30.24 "HgN/A
10:50 am43 °FPartly sunny.7 mph53%30.24 "HgN/A
10:20 am43 °FBroken clouds.6 mph57%30.24 "HgN/A
9:50 am43 °FScattered clouds.8 mph66%30.24 "HgN/A
9:20 am41 °FScattered clouds.7 mph66%30.24 "HgN/A
8:50 am39 °FPartly sunny.9 mph75%30.24 "HgN/A
8:20 am39 °FPartly sunny.7 mph75%30.24 "HgN/A
7:50 am39 °FScattered clouds.8 mph75%30.24 "HgN/A
7:20 am37 °FPassing clouds.8 mph75%30.21 "HgN/A
6:50 am37 °FScattered clouds.9 mph75%30.21 "HgN/A
6:20 am39 °FPartly sunny.10 mph70%30.21 "HgN/A
5:50 am39 °FPassing clouds.9 mph75%30.21 "HgN/A
Weather by CustomWeather, © 2017

See weather overviewHow to use our weather pages